Weather History for Defuniak Springs, Defuniak Sp, FL

Change the Weather History Date:

Monday, December 30, 2013

  Actual Average (KCEW) Record (KCEW)
Temperature  
Mean Temperature 47 °F -  
Max Temperature 57 °F 58 °F 78 °F (1996)
Min Temperature 37 °F 43 °F 18 °F (1983)
Degree Days  
Heating Degree Days 18    
Moisture  
Dew Point 45 °F    
Average Humidity 89    
Maximum Humidity 100    
Minimum Humidity 64    
Precipitation  
Precipitation 0.07 in - - ()
Sea Level Pressure  
Sea Level Pressure 30.18 in    
Wind  
Wind Speed 2 mph (North)    
Max Wind Speed 7 mph    
Max Gust Speed -    
Visibility 8 miles    
Events Fog , Rain    
Averages and records for this station are not official NWS values.
T = Trace of Precipitation, MM = Missing Value Source: NWS Daily Summary

Daily Weather History Graph

Daily Weather History Graph

Search for Another Location

Airport:

Trip Planner

Search our weather history database for the weather conditions in past years. The results will help you decide how hot, cold, wet, or windy it might be!

Date:

Astronomy

Dec. 30, 2013 Rise Set
Actual Time 6:41 AM CST 4:53 PM CST
Civil Twilight 6:15 AM CST 5:19 PM CST
Nautical Twilight 5:45 AM CST 5:49 PM CST
Astronomical Twilight 5:15 AM CST 6:19 PM CST
Moon 4:34 AM CST (12/30) 3:22 PM CST (12/30)
Length of Visible Light 11h 04m
Length of Day
10h 11m
Waning Crescent, 4% of the Moon is Illuminated
Dec 30
Waning Crescent
Jan 1
New
Jan 7
First Quarter
Jan 15
Full
Jan 23
Last Quarter

Hourly Weather History & Observations

Time (CST) Temp. Windchill Dew Point Humidity Pressure Visibility Wind Dir Wind Speed Gust Speed Precip Events Conditions
12:15 AM 40.3 °F - 40.3 °F 100% 30.12 in 4.0 mi Calm Calm - N/A   Clear
12:35 AM 39.9 °F - 39.9 °F 100% 30.12 in 4.0 mi Calm Calm - N/A   Clear
12:55 AM 39.0 °F - 39.0 °F 100% 30.12 in 0.5 mi Calm Calm - N/A Fog Fog
1:15 AM 38.5 °F - 38.5 °F 100% 30.11 in 1.0 mi Calm Calm - N/A   Mostly Cloudy
1:35 AM 37.8 °F - 37.8 °F 100% 30.12 in 0.5 mi Calm Calm - N/A Fog Fog
1:55 AM 37.6 °F - 37.6 °F 100% 30.12 in 0.5 mi Calm Calm - N/A Fog Fog
2:15 AM 37.2 °F - 37.2 °F 100% 30.12 in 4.0 mi Calm Calm - N/A   Scattered Clouds
2:35 AM 38.1 °F - 38.1 °F 100% 30.11 in 1.0 mi Calm Calm - N/A   Mostly Cloudy
2:55 AM 38.3 °F - 38.3 °F 100% 30.11 in 7.0 mi Calm Calm - N/A   Clear
3:15 AM 39.6 °F - 39.6 °F 100% 30.12 in 7.0 mi Calm Calm - N/A   Clear
3:35 AM 39.7 °F 36.5 °F 39.7 °F 100% 30.12 in 5.0 mi NNW 4.6 mph - N/A   Clear
3:55 AM 39.7 °F 35.6 °F 39.7 °F 100% 30.13 in 4.0 mi NW 5.8 mph - N/A   Clear
4:15 AM 39.6 °F 34.7 °F 39.6 °F 100% 30.13 in 1.5 mi NW 6.9 mph - N/A   Mostly Cloudy
4:35 AM 39.2 °F 35.0 °F 39.2 °F 100% 30.13 in 0.8 mi NW 5.8 mph - N/A   Overcast
4:55 AM 39.2 °F 35.9 °F 39.2 °F 100% 30.13 in 1.8 mi NNW 4.6 mph - 0.01 in   Mostly Cloudy
5:15 AM 38.8 °F 35.4 °F 38.8 °F 100% 30.15 in 5.0 mi NNW 4.6 mph - N/A   Clear
5:35 AM 38.3 °F 34.8 °F 38.3 °F 100% 30.13 in 7.0 mi North 4.6 mph - N/A   Clear
5:55 AM 38.3 °F 34.8 °F 38.3 °F 100% 30.15 in 7.0 mi North 4.6 mph - N/A   Clear
6:15 AM 38.3 °F 35.9 °F 38.3 °F 100% 30.14 in 7.0 mi North 3.5 mph - N/A   Clear
6:35 AM 37.9 °F - 37.9 °F 100% 30.15 in 10.0 mi Calm Calm - N/A   Clear
6:55 AM 39.6 °F - 39.6 °F 100% 30.16 in 10.0 mi Calm Calm - N/A   Clear
7:15 AM 40.3 °F 38.2 °F 40.3 °F 100% 30.16 in 10.0 mi NNE 3.5 mph - N/A   Clear
7:35 AM 42.3 °F 40.5 °F 42.3 °F 100% 30.17 in 10.0 mi North 3.5 mph - N/A   Clear
7:55 AM 44.2 °F 41.8 °F 44.1 °F 99% 30.17 in 10.0 mi NNE 4.6 mph - N/A   Clear
8:10 AM 45.9 °F 42.9 °F 44.8 °F 96% 30.18 in 10.0 mi North 5.8 mph - N/A   Clear
8:35 AM 46.4 °F 45.2 °F 45.0 °F 95% 30.18 in 10.0 mi NNE 3.5 mph - N/A   Clear
8:55 AM 47.5 °F - 45.1 °F 92% 30.20 in 10.0 mi Calm Calm - N/A   Clear
9:15 AM 48.7 °F - 45.7 °F 89% 30.20 in 10.0 mi NNE 3.5 mph - N/A   Clear
9:35 AM 50.0 °F - 45.7 °F 85% 30.20 in 10.0 mi ENE 3.5 mph - N/A   Clear
9:55 AM 50.9 °F - 45.0 °F 80% 30.21 in 10.0 mi Calm Calm - N/A   Clear
10:15 AM 51.4 °F - 45.1 °F 79% 30.21 in 10.0 mi NE 3.5 mph - N/A   Clear
10:35 AM 53.8 °F - 46.0 °F 75% 30.20 in 10.0 mi ENE 3.5 mph - 0.01 in   Clear
10:55 AM 56.3 °F - 45.7 °F 68% 30.21 in 10.0 mi NE 4.6 mph - 0.01 in   Clear
11:15 AM 56.5 °F - 45.1 °F 66% 30.20 in 10.0 mi ENE 4.6 mph - N/A   Clear
11:35 AM 56.8 °F - 45.0 °F 64% 30.19 in 10.0 mi Calm Calm - N/A   Clear
11:55 AM 56.5 °F - 45.7 °F 67% 30.19 in 10.0 mi Calm Calm - N/A   Clear
12:15 PM 56.5 °F - 45.7 °F 67% 30.18 in 10.0 mi North 3.5 mph - N/A   Clear
12:35 PM 56.3 °F - 46.0 °F 68% 30.18 in 10.0 mi Calm Calm - N/A   Clear
12:55 PM 57.0 °F - 46.0 °F 67% 30.18 in 10.0 mi Calm Calm - 0.01 in   Clear
1:15 PM 56.7 °F - 45.7 °F 67% 30.17 in 10.0 mi Calm Calm - N/A   Clear
1:35 PM 56.5 °F - 44.8 °F 65% 30.17 in 10.0 mi NNE 3.5 mph - N/A   Clear
1:55 PM 56.8 °F - 45.5 °F 66% 30.16 in 10.0 mi ENE 4.6 mph - N/A   Clear
2:15 PM 57.2 °F - 46.2 °F 67% 30.16 in 10.0 mi East 3.5 mph - N/A   Clear
2:35 PM 56.7 °F - 45.7 °F 67% 30.16 in 10.0 mi Calm Calm - N/A   Scattered Clouds
2:55 PM 56.3 °F - 46.4 °F 69% 30.16 in 10.0 mi Calm Calm - 0.01 in   Scattered Clouds
3:15 PM 55.9 °F - 47.1 °F 72% 30.16 in 10.0 mi Calm Calm - N/A   Scattered Clouds
3:35 PM 55.4 °F - 47.5 °F 75% 30.17 in 10.0 mi Calm Calm - N/A   Clear
3:55 PM 54.7 °F - 48.2 °F 79% 30.18 in 10.0 mi Calm Calm - N/A   Clear
4:15 PM 54.0 °F - 49.1 °F 84% 30.18 in 10.0 mi Calm Calm - N/A   Scattered Clouds
4:35 PM 53.6 °F - 49.1 °F 85% 30.18 in 10.0 mi Calm Calm - N/A   Scattered Clouds
4:55 PM 53.1 °F - 49.1 °F 86% 30.18 in 10.0 mi Calm Calm - N/A   Scattered Clouds
5:15 PM 52.7 °F - 49.1 °F 88% 30.19 in 10.0 mi Calm Calm - 0.01 in Rain Light Rain
5:35 PM 51.8 °F - 49.6 °F 92% 30.19 in 10.0 mi Calm Calm - 0.01 in   Scattered Clouds
5:55 PM 51.3 °F - 49.6 °F 94% 30.20 in 10.0 mi Calm Calm - 0.01 in   Scattered Clouds
6:15 PM 51.6 °F - 49.3 °F 92% 30.21 in 10.0 mi Calm Calm - N/A   Scattered Clouds
6:35 PM 50.9 °F - 49.1 °F 94% 30.21 in 10.0 mi Calm Calm - N/A   Scattered Clouds
6:55 PM 51.1 °F - 49.1 °F 93% 30.21 in 10.0 mi Calm Calm - N/A   Mostly Cloudy
7:15 PM 50.7 °F - 49.1 °F 94% 30.21 in 10.0 mi Calm Calm - N/A   Mostly Cloudy
7:35 PM 50.5 °F - 49.3 °F 95% 30.23 in 10.0 mi Calm Calm - N/A   Scattered Clouds
7:55 PM 50.9 °F - 48.7 °F 92% 30.25 in 10.0 mi Calm Calm - 0.01 in   Clear
8:15 PM 50.5 °F - 49.1 °F 95% 30.24 in 10.0 mi Calm Calm - N/A   Clear
8:35 PM 50.2 °F - 48.6 °F 94% 30.26 in 10.0 mi Calm Calm - N/A   Scattered Clouds
8:55 PM 50.2 °F - 48.6 °F 94% 30.24 in 10.0 mi Calm Calm - N/A   Scattered Clouds
9:15 PM 50.2 °F - 49.1 °F 96% 30.24 in 10.0 mi Calm Calm - N/A   Clear
9:35 PM 50.0 °F - 49.1 °F 97% 30.25 in 10.0 mi NNW 3.5 mph - N/A   Clear
9:55 PM 50.2 °F - 49.1 °F 96% 30.25 in 10.0 mi Calm Calm - N/A   Clear
10:15 PM 50.5 °F - 48.7 °F 94% 30.25 in 10.0 mi Calm Calm - N/A   Clear
10:35 PM 50.4 °F - 48.7 °F 94% 30.25 in 10.0 mi NNW 4.6 mph - N/A   Scattered Clouds
10:55 PM 50.0 °F - 48.7 °F 95% 30.25 in 10.0 mi Calm Calm - 0.01 in   Scattered Clouds
11:15 PM 50.0 °F - 48.7 °F 95% 30.24 in 10.0 mi NNW 3.5 mph - N/A   Clear
11:35 PM 50.0 °F - 48.7 °F 95% 30.27 in 10.0 mi NW 5.8 mph - N/A   Clear
11:55 PM 50.0 °F - 48.2 °F 94% 30.27 in 10.0 mi NNW 4.6 mph - N/A   Clear